Location: Unspecified
(41.5000°N, 0.0000°E)
Time: 03:31:30
(UTC+00:00)

Vanguard 3 - Pass Details

Date: 24 June 2019
Orbit: 507 x 3264 km, 33.4° (Epoch: 17 July)

Event Time Altitude Azimuth Distance (km) Brightness Sun altitude
Rises 16:15:09 0° 269° (W) 4,084 11.8 35.0°
Reaches altitude 10° 16:19:58 10° 245° (WSW) 2,566 10.8 34.1°
Maximum altitude 16:22:38 13° 218° (SW) 2,065 9.8 33.6°
Drops below altitude 10° 16:24:53 10° 188° (S) 2,077 9.4 33.2°
Sets 16:28:00 0° 159° (SSE) 2,747 9.7 32.6°
